Location: Unspecified
(0.0000°N, 0.0000°E)
Time: 01:17:25
(UTC+00:00)

Cosmos 1574 - Visible Passes

Search period start: 27 February 2021 00:00
Search period end: 09 March 2021 00:00
Orbit: 963 x 1005 km, 83.0° (Epoch: 26 February)

Date Brightness Start Highest point End Pass type
(mag) Time Alt. Az. Time Alt. Az. Time Alt. Az.
27 Feb 6.6 05:42:04 10° N 05:48:18 65° E 05:54:38 10° SSE visible
27 Feb 8.6 18:50:17 10° SW 18:55:03 23° W 18:59:47 10° NW visible
28 Feb 9.2 04:29:38 10° ENE 04:30:58 11° E 04:32:17 10° E visible
01 Mar 8.2 04:53:35 10° NNE 04:58:48 27° E 05:04:03 10° SE visible
02 Mar 6.6 05:20:24 10° N 05:26:39 63° E 05:32:57 10° SSE visible
02 Mar 8.7 18:28:33 10° SW 18:33:22 24° W 18:38:10 10° NW visible
03 Mar 9.2 04:08:23 10° E 04:09:18 10° E 04:10:12 10° E visible
04 Mar 8.1 04:31:58 10° NNE 04:37:09 27° E 04:42:21 10° SE visible
05 Mar 6.6 04:58:45 10° N 05:05:00 62° E 05:11:17 10° SSE visible
06 Mar 6.1 05:26:38 10° NNW 05:32:51 59° W 05:39:08 10° S visible
07 Mar 8.1 04:10:20 10° NNE 04:15:29 26° E 04:20:39 10° SE visible
08 Mar 6.6 04:37:05 10° N 04:43:20 60° E 04:49:37 10° SSE visible
